Starlink 32571

operational
NORAD ID: 62055 Int'l Des: 2024-216 Owner: SPXS Country: US Constellation: starlink
LEOCIRCULAR

About Starlink 32571

Description loading...

Live Position

Loading 3D Globe...

Upcoming Passes

Altitude History

Altitude vs Time

uPlot chart will show altitude changes over time

Two-Line Element Set

1 62055U 24216Z 25305.15219866 .00074058 00000-0 26655-2 0 9996
2 62055 42.9976 261.6999 0001504 252.9821 107.0866 15.27682999 54328
Epoch: Nov 1, 2025 • Age: 17 hours

Current Status

Altitude 483.1 km
Velocity 7.63 km/s
Sub-Earth Point 25.09°N, 70.04°W
Launch Date Nov 21, 2024
Age 0.9 years
Type internet

Technical Details

Classification Payload
Mass 730.00 kg
Dry Mass 700.00 kg
Total Mass 730.00 kg
Length 0.30 m
Diameter 4.10 m
Span 29.00 m
Shape Box + pan
Manufacturer SPXS
Bus Type Starlink V2M
Phase Status In Orbit
Owner/State SPXS/US

Large Constellations

Loading constellations...